Wind_Speed
8 8 7 7 7 7 7 7 7 6 6 7 7 7 6 6 6 6 6 6 6 6 7 7 8 8 8 9 9 9 9 10 11 13 13 9 3 5 6 4 3 4 5 4 4 2 2 1 2 1 1 1 1 2 3 2 2 2 3 3 1 3 3 4 6 5 3 3 5 6 8 3 5 8 9 10 11 13 17 21 20 18 16 15 15 15 16 16
9 9 9 8 8 8 8 8 8 7 8 8 8 8 7 7 7 7 7 7 7 7 7 8 8 8 9 9 10 10 10 11 12 11 7 1 6 9 6 3 1 5 6 5 5 3 3 3 3 2 2 2 2 2 1 0 2 2 3 2 3 5 5 5 7 5 3 4 7 9 9 5 6 9 9 7 9 12 14 23 24 19 18 17 17 17 16 17
11 11 10 10 10 10 10 9 8 9 9 8 8 8 8 8 8 8 8 8 8 8 8 8 9 9 10 10 11 11 11 14 12 5 3 7 8 7 3 1 4 6 7 6 3 3 5 4 3 3 2 2 2 1 0 1 1 1 3 1 5 6 5 6 7 8 8 8 8 9 8 6 9 10 7 5 9 12 10 17 18 18 23 24 23 22 20 19
12 12 12 11 11 11 10 10 9 9 9 9 9 9 9 9 9 9 8 9 9 9 9 10 10 10 11 11 11 11 13 14 7 4 5 6 6 1 4 7 8 8 9 6 3 5 6 5 3 2 2 1 0 1 1 2 2 2 4 3 5 4 2 8 9 10 10 7 7 10 9 9 11 9 7 7 8 8 13 20 17 19 27 27 25 22 19 17
14 13 13 12 12 11 10 10 10 10 10 10 10 10 10 10 10 10 10 10 10 11 11 11 11 11 11 11 11 11 11 8 1 7 4 3 2 6 10 10 9 10 9 5 4 6 7 6 4 3 1 0 1 0 1 3 4 2 4 6 5 3 2 10 10 11 11 8 10 12 9 9 10 9 11 9 5 9 20 26 24 25 28 25 22 19 16 14
14 14 14 13 13 12 12 12 11 11 11 11 11 11 11 11 11 11 11 11 12 12 13 13 12 12 12 11 11 11 7 2 4 5 5 7 9 12 11 9 9 10 9 4 4 6 7 7 5 4 2 1 1 2 1 3 5 3 4 6 8 7 7 12 13 13 14 12 13 11 10 12 9 11 15 13 15 22 26 26 25 25 22 19 18 15 14 13
15 15 14 14 14 13 13 13 13 12 12 12 12 12 12 12 12 12 12 12 12 12 13 13 13 12 12 12 12 11 10 9 9 9 11 12 14 15 11 9 8 8 7 4 5 6 8 8 7 5 2 1 2 4 1 2 5 4 3 4 7 9 9 13 14 14 16 16 18 15 14 15 10 9 13 18 26 26 21 20 20 17 16 16 15 13 12 13
16 16 15 15 15 14 14 14 14 13 13 13 13 13 13 13 13 13 12 12 12 12 13 14 13 13 12 12 12 10 13 15 11 10 12 13 14 14 12 10 8 8 7 5 6 6 8 9 9 6 2 1 3 3 1 2 3 4 4 5 5 8 10 14 16 19 20 19 20 15 14 20 17 10 11 21 25 16 12 14 14 13 14 14 13 12 11 10
17 16 16 15 15 15 14 14 14 14 14 13 13 13 13 13 13 13 13 13 13 13 14 14 14 14 12 12 10 8 12 12 8 7 9 10 12 12 11 10 8 8 6 6 8 8 9 9 9 7 4 2 3 2 1 0 2 4 5 5 7 11 14 16 17 20 18 16 16 10 12 21 15 5 9 17 12 6 8 11 11 14 15 12 10 10 9 8
16 16 15 15 15 14 14 14 14 14 13 13 13 13 13 13 13 13 13 13 13 14 14 14 14 13 12 12 7 5 9 8 6 7 7 8 9 9 10 9 9 8 6 6 8 9 10 8 7 7 5 2 2 2 1 2 2 2 3 6 10 14 16 16 18 22 18 14 14 9 11 15 7 1 6 12 6 6 10 10 12 14 11 8 6 6 7 8
16 15 15 14 14 13 13 13 13 13 13 13 13 13 13 14 14 14 14 13 13 13 13 14 13 12 12 11 9 8 9 8 8 9 8 9 10 10 10 9 9 8 7 6 7 9 11 10 6 5 4 2 2 2 3 2 2 3 5 8 11 13 16 17 16 18 13 7 8 8 7 9 1 2 9 13 7 10 12 12 12 10 6 4 3 4 6 7
16 15 14 14 13 13 13 13 13 13 13 14 14 14 14 14 14 14 13 13 12 12 12 13 12 12 11 12 16 15 13 13 13 13 13 12 11 11 10 10 10 9 8 8 8 10 11 11 8 6 4 3 1 1 2 2 3 4 4 5 9 9 11 15 10 6 3 2 4 3 4 6 2 7 12 12 9 12 13 12 11 7 3 1 2 4 4 6
15 15 14 14 13 13 14 14 14 14 14 14 14 14 14 13 13 13 13 12 12 12 12 12 12 12 10 11 16 15 13 14 14 13 14 13 12 11 11 11 11 11 10 11 11 11 12 11 9 8 6 3 2 1 2 4 4 4 2 1 5 7 7 8 0 1 1 2 4 4 2 7 6 11 12 11 11 14 15 12 9 5 1 1 1 2 3 4
16 15 15 14 14 14 15 15 15 14 14 14 14 13 13 12 12 12 12 12 12 11 11 11 11 11 10 12 14 14 14 14 13 13 14 14 12 12 12 12 12 12 11 10 10 10 10 9 9 7 6 5 3 2 3 5 3 3 2 1 3 2 5 6 2 1 3 3 5 6 2 6 9 13 13 11 12 17 17 10 7 3 1 2 2 1 1 2
17 16 16 15 15 15 15 15 14 14 14 13 13 13 12 12 12 12 11 11 11 11 11 10 10 9 9 12 13 13 14 14 14 14 14 14 13 12 11 10 10 10 9 9 10 10 8 7 7 5 4 4 2 1 2 4 3 2 1 3 3 1 5 10 6 3 2 1 3 5 2 6 8 13 13 11 13 19 18 9 4 1 3 4 4 3 2 3
18 17 16 16 16 15 15 15 14 14 13 13 12 12 12 11 11 11 11 11 10 10 10 9 9 7 6 10 12 11 12 12 12 12 13 13 12 9 8 6 7 8 8 9 9 9 8 6 5 3 3 2 2 3 4 4 4 3 1 4 3 3 3 7 5 1 2 2 1 2 2 5 6 12 17 16 17 19 13 5 2 4 5 6 6 5 5 4
18 17 17 16 16 15 15 15 14 14 13 12 12 11 11 11 10 10 11 10 10 10 9 8 6 6 8 11 11 10 11 10 9 10 10 10 9 7 6 6 7 8 8 7 7 7 7 6 4 3 0 2 3 5 3 2 4 3 0 3 4 4 3 3 4 3 5 4 1 1 1 7 9 15 25 21 18 17 9 4 5 7 7 9 9 8 7 6
18 17 17 16 16 15 15 15 14 13 12 12 11 10 10 10 10 11 11 11 10 8 8 8 5 2 8 14 12 10 9 9 10 10 9 8 7 7 7 7 7 8 7 5 6 6 6 4 3 1 2 2 2 5 3 5 5 4 3 3 4 3 4 4 4 3 5 4 2 2 3 10 11 14 22 19 17 15 10 7 8 10 10 11 12 11 11 10
18 17 16 16 15 15 15 15 14 13 12 11 11 10 10 10 10 12 13 13 11 6 4 7 9 4 3 7 10 10 7 7 9 10 10 9 9 9 9 8 7 9 8 5 4 6 6 3 3 1 1 3 5 7 9 9 7 6 5 4 4 4 5 5 5 5 2 4 5 4 5 9 10 11 13 17 14 12 10 7 10 12 13 14 15 15 15 15
18 17 17 16 15 15 15 14 14 13 12 11 10 9 9 8 6 8 11 14 16 14 11 10 11 11 7 3 5 8 7 7 9 11 12 10 11 11 10 9 8 6 4 4 3 3 5 3 2 5 7 8 10 11 10 4 4 4 3 3 4 5 6 5 5 5 1 0 5 4 4 7 10 9 9 14 11 11 12 9 13 15 15 16 17 18 18 19
18 18 17 16 16 15 15 14 14 13 12 11 10 8 7 5 2 4 7 10 15 17 18 18 17 18 16 11 8 8 7 8 10 12 13 12 12 10 9 8 5 2 1 3 4 3 4 4 7 10 10 8 7 8 7 2 2 2 2 3 4 5 6 6 5 5 1 2 4 2 3 8 9 5 8 12 9 11 11 11 14 15 17 17 18 19 19 19
19 18 17 16 16 15 14 14 14 14 12 11 10 8 7 6 6 8 7 8 14 17 18 21 23 24 24 21 18 15 10 7 9 13 14 14 15 10 8 6 4 3 2 3 4 2 2 4 11 13 6 3 2 4 5 4 3 2 2 2 4 3 4 7 5 4 2 2 3 2 2 9 8 3 7 10 10 10 12 13 13 14 17 17 18 18 19 20
19 17 17 16 15 14 14 14 14 14 12 11 10 9 8 8 8 10 8 6 12 17 18 20 24 27 28 26 24 22 17 13 12 14 16 16 16 12 9 7 4 3 2 3 5 4 3 6 12 10 5 4 2 3 6 3 2 3 3 2 4 3 1 4 4 4 2 1 2 2 2 7 4 4 6 9 12 14 16 16 15 16 17 16 16 17 19 21
19 18 17 16 15 14 14 14 15 14 13 13 11 10 8 7 7 8 7 4 7 11 16 19 21 23 26 23 21 21 20 17 12 12 18 19 16 10 8 8 5 3 4 7 8 6 7 8 4 3 6 6 5 3 7 4 2 3 5 5 5 5 5 6 4 4 2 2 2 1 3 5 3 1 2 6 10 13 14 16 16 16 16 16 16 18 20 22
20 19 17 16 14 13 14 16 15 14 14 14 12 10 8 7 6 5 4 2 4 7 9 13 14 16 19 18 17 16 15 14 12 11 16 21 18 10 6 8 6 4 6 6 5 5 9 8 2 5 3 5 5 4 5 7 3 4 5 9 10 8 7 6 3 5 3 3 3 4 4 4 5 4 2 4 5 7 10 13 14 13 14 15 17 18 19 21
22 20 18 17 14 12 13 14 13 13 14 14 12 9 8 7 4 2 1 2 4 4 3 6 8 8 11 12 12 11 5 7 12 13 15 20 20 11 5 5 4 3 5 5 2 3 5 5 2 4 4 5 4 5 5 7 5 2 4 8 9 6 5 4 2 1 0 2 3 3 1 5 6 6 3 4 5 5 6 9 10 11 13 14 15 16 18 22
23 21 19 17 14 13 13 11 11 12 12 12 11 10 8 7 5 1 3 3 5 4 6 5 6 6 7 9 14 12 2 3 9 12 17 20 18 12 6 3 3 2 4 5 1 3 3 1 1 4 4 4 4 4 6 7 6 3 4 5 6 6 6 6 5 3 2 2 4 3 1 3 4 6 4 5 7 5 4 5 6 8 11 12 14 15 18 21
24 21 19 17 14 13 13 10 11 12 12 9 9 12 10 8 7 4 3 3 3 4 5 4 6 6 8 14 16 9 3 5 6 8 16 18 16 10 5 5 6 4 3 6 3 4 2 1 2 6 4 4 6 4 7 9 4 6 3 6 6 6 6 5 6 2 1 1 4 4 1 1 5 5 3 4 4 1 1 2 1 6 9 11 13 15 18 21
24 22 20 18 15 14 13 12 13 13 12 9 9 12 11 10 7 4 2 3 1 4 3 5 7 6 10 14 10 3 4 3 2 6 12 14 12 6 2 6 7 5 2 3 4 4 1 1 4 6 5 5 4 2 4 8 3 4 6 7 5 5 5 4 5 3 2 1 4 6 4 2 5 5 3 2 2 3 3 4 3 6 8 10 13 15 18 20
24 23 22 19 18 20 19 19 16 13 13 12 11 12 14 11 6 2 4 5 1 2 3 5 6 6 10 9 2 1 3 1 3 9 9 7 9 5 4 5 4 5 1 3 1 4 2 1 2 3 3 5 4 3 1 3 3 6 7 5 5 5 4 3 2 4 2 3 6 6 6 5 3 5 3 3 1 2 3 3 4 6 8 11 13 15 17 19
25 24 24 23 23 23 24 25 20 15 15 14 13 15 15 7 3 4 8 2 2 2 4 3 3 6 9 6 2 2 2 1 4 9 5 3 5 4 5 4 2 3 3 4 2 4 4 2 2 2 2 4 6 5 4 4 4 6 4 3 3 4 3 4 4 3 1 5 5 4 4 5 4 4 3 2 2 2 3 4 7 9 11 13 14 16 17 18
28 27 25 27 28 25 25 25 20 19 20 17 18 21 14 3 3 5 4 2 1 3 4 3 3 5 6 4 3 4 3 1 3 6 4 2 4 4 3 4 4 3 2 4 2 4 3 4 3 2 2 4 5 4 3 5 5 5 4 5 3 3 3 3 3 0 3 6 3 2 2 4 5 5 2 3 4 4 6 7 13 16 17 18 17 17 18 18
30 30 28 29 30 28 27 24 21 23 24 22 23 19 9 3 7 6 4 3 1 2 3 3 3 4 7 4 2 4 3 2 4 3 2 3 3 4 4 3 6 4 1 5 3 1 2 5 1 1 3 6 7 4 2 1 1 4 5 4 3 2 0 3 3 2 4 4 2 2 1 1 5 3 2 3 4 4 6 8 20 23 22 21 20 18 18 17
31 32 33 32 31 31 30 25 23 23 25 27 21 9 4 5 4 4 7 6 1 1 2 3 5 5 5 4 4 5 3 2 6 4 2 4 3 4 5 5 5 4 3 4 3 4 2 4 3 5 2 6 8 5 5 5 3 3 4 5 4 4 4 4 3 3 4 3 2 2 0 3 3 1 2 2 2 3 3 11 22 23 21 21 19 18 18 17
31 31 34 34 34 35 32 29 27 23 25 27 15 4 6 6 1 2 6 4 1 1 2 3 5 5 3 2 2 4 4 3 5 5 2 4 4 4 5 5 6 4 4 4 2 3 4 4 6 3 1 5 6 4 5 6 2 2 2 4 2 4 5 2 3 4 2 2 3 2 2 3 3 1 1 2 4 5 7 14 19 20 20 20 19 19 19 17
31 32 34 36 37 36 33 32 29 26 29 25 9 5 8 4 1 3 3 2 3 4 4 2 3 4 3 2 2 4 3 1 4 4 2 3 3 4 4 4 7 8 5 5 2 2 3 4 5 1 1 3 4 4 4 3 2 2 2 3 4 4 6 3 2 1 3 1 3 1 2 4 1 0 0 3 4 3 5 10 15 19 19 19 20 20 19 16
34 35 38 39 38 35 34 34 31 31 33 22 7 7 6 3 5 4 1 2 3 6 7 3 2 4 4 3 3 5 3 2 3 4 3 2 3 5 4 4 6 12 11 6 3 3 4 3 4 2 2 1 2 4 4 3 3 4 2 5 3 2 4 3 1 3 3 3 4 1 4 4 2 2 1 2 2 3 4 7 11 15 17 19 21 21 18 15
34 32 35 38 38 36 34 33 31 33 29 14 8 9 5 4 6 3 2 2 2 4 5 4 4 5 5 5 4 5 5 4 4 4 3 2 3 5 7 4 5 11 14 8 2 2 3 2 5 1 3 1 3 4 3 4 2 4 3 3 3 2 1 2 2 2 1 3 4 3 3 4 4 4 3 5 7 7 6 7 8 11 16 20 21 21 18 15
32 26 24 30 34 33 30 29 32 32 20 6 8 9 3 4 6 5 6 4 2 3 3 3 3 1 3 5 4 4 6 5 5 4 3 3 3 4 6 4 3 6 10 9 5 1 3 2 4 1 1 0 3 2 3 2 1 2 1 1 1 2 3 2 2 3 2 2 3 5 4 3 5 6 7 10 11 11 10 8 8 14 20 23 23 21 17 13
30 17 12 21 28 27 26 29 30 24 10 3 6 5 1 3 5 8 10 6 2 2 3 3 3 2 3 3 2 3 5 5 6 4 3 4 3 4 3 3 3 2 3 6 4 0 2 2 3 3 2 1 1 2 6 6 3 2 2 2 1 0 2 1 1 3 3 3 2 4 5 5 4 3 7 9 10 12 13 11 11 18 25 26 24 20 15 11
25 10 5 17 23 24 27 25 16 9 4 2 3 2 1 2 3 6 10 8 4 2 2 3 3 3 3 3 2 3 4 4 5 4 3 3 3 2 2 2 4 4 3 3 3 2 2 3 3 2 1 3 4 3 4 6 5 5 5 5 4 3 3 1 3 1 2 3 4 4 6 7 4 1 3 6 8 12 15 15 15 22 28 27 23 18 13 10
19 5 4 16 22 25 24 13 3 3 3 3 3 2 2 2 2 4 5 6 4 2 2 3 2 3 3 3 3 3 4 3 4 5 3 4 4 3 2 3 4 5 5 3 3 3 3 3 3 2 3 4 5 2 2 3 3 4 2 3 3 3 4 4 6 4 1 1 2 2 3 5 3 1 1 6 10 14 19 19 19 24 28 27 24 17 10 10
16 7 8 18 24 26 18 4 2 3 2 2 3 3 2 2 2 2 3 4 3 2 3 2 2 4 3 2 3 3 4 4 4 5 3 3 4 3 4 5 3 3 4 1 2 3 3 2 2 1 2 2 4 3 1 2 3 2 2 2 4 3 4 4 5 3 2 3 1 2 4 4 2 3 1 6 10 12 17 20 21 24 26 24 22 15 10 10
13 9 10 16 23 23 13 3 4 6 3 2 3 1 1 1 2 3 3 4 4 3 3 2 2 3 2 1 2 3 4 3 3 4 3 3 3 2 4 5 5 4 3 1 2 5 4 2 3 2 2 2 3 2 2 2 0 3 2 2 3 3 5 3 2 3 2 5 6 3 7 5 2 4 2 4 7 7 13 18 17 18 21 22 19 13 10 11
9 6 6 15 23 19 7 2 3 5 6 5 3 3 2 0 4 6 4 3 4 4 3 2 2 3 3 2 2 1 3 3 2 2 2 2 1 1 2 3 5 5 4 3 2 5 4 2 3 5 6 6 4 3 3 2 1 2 2 3 4 5 6 4 2 3 4 4 6 5 7 4 3 3 2 1 3 5 11 15 14 13 17 20 17 11 12 14
8 2 2 10 16 13 8 4 2 2 5 6 3 3 5 3 3 6 7 5 5 4 2 2 2 3 2 3 3 3 5 4 2 2 2 3 2 1 1 2 4 5 4 3 4 4 2 1 4 8 10 9 7 5 4 4 4 4 4 6 6 6 7 5 4 5 5 2 4 7 5 1 3 3 5 6 5 6 9 12 14 14 16 17 15 13 16 17
7 3 3 5 6 7 7 6 4 1 2 5 4 2 7 8 4 4 8 7 7 7 2 1 3 2 2 5 5 4 5 3 2 2 2 2 2 2 1 1 2 5 4 3 5 5 3 3 6 9 10 7 4 5 5 5 6 8 7 8 7 5 7 7 6 6 5 3 8 8 5 4 8 8 8 8 7 7 9 12 16 17 17 17 16 16 17 17
4 3 8 8 3 2 5 7 8 5 2 3 4 1 5 9 7 6 7 5 5 8 5 1 5 9 8 7 4 3 3 3 4 5 3 2 2 0 1 1 2 5 4 3 4 4 3 5 6 5 6 3 2 3 4 4 3 4 6 8 8 7 9 10 9 8 8 7 10 6 7 8 12 8 7 10 11 11 12 15 17 17 17 17 16 16 16 16
6 3 7 11 5 3 8 11 10 10 8 5 3 4 6 9 10 7 4 3 3 8 9 6 8 14 14 10 6 4 5 5 6 7 5 4 4 3 1 2 3 5 4 3 2 3 3 3 3 4 4 2 1 1 2 4 2 2 6 8 7 8 10 10 8 8 7 7 8 6 6 9 11 7 6 10 14 14 15 18 18 16 16 16 15 15 15 15
9 5 6 9 5 2 7 10 9 8 9 7 6 8 7 8 10 8 4 6 5 5 10 12 12 11 12 11 10 10 10 10 9 8 7 6 4 4 4 3 3 3 3 3 1 1 3 2 2 3 2 1 1 0 2 3 3 3 8 10 5 5 6 8 8 5 3 6 9 8 8 11 12 8 7 10 12 13 17 21 21 18 16 15 15 15 15 15
14 11 8 6 3 3 5 6 7 6 5 7 8 8 6 9 12 8 4 9 11 6 8 15 15 7 6 9 13 15 17 15 12 10 9 10 8 7 7 6 8 7 4 3 2 2 3 2 2 3 3 3 1 2 4 3 2 4 12 13 7 6 7 7 5 6 7 10 10 8 7 10 10 3 5 10 12 14 16 19 20 19 16 15 16 16 16 17
18 15 12 7 3 4 6 3 5 6 6 8 10 9 8 10 10 8 5 8 12 10 9 13 13 6 5 9 13 17 20 16 11 8 8 9 7 5 4 4 7 7 6 6 2 1 4 4 2 3 5 2 1 3 4 4 1 6 11 9 10 11 10 5 3 8 11 9 7 7 9 10 5 1 2 8 11 12 15 17 18 19 16 15 16 16 16 17
Wind_Direction
227 227 228 228 228 230 229 228 227 226 228 229 230 229 232 233 234 239 242 246 251 257 265 270 278 286 291 298 303 306 313 317 319 320 314 307 268 178 162 147 93 32 14 9 356 322 283 192 169 192 228 119 77 78 80 68 63 32 82 97 295 198 202 189 186 192 177 266 276 318 330 286 282 311 314 309 288 286 294 295 297 297 299 304 311 317 312 311
227 229 230 230 231 232 232 233 233 232 233 233 234 237 239 240 243 247 249 253 256 262 268 273 280 286 292 299 302 307 311 315 319 320 324 353 147 151 150 141 53 1 356 350 340 299 240 205 200 209 202 130 85 100 112 66 87 75 105 112 241 201 211 203 193 209 212 271 280 303 313 273 276 306 314 302 286 301 304 302 307 311 321 332 332 331 325 319
230 230 229 229 230 230 231 233 233 234 236 237 239 242 243 245 248 250 254 257 261 266 270 275 281 285 291 296 301 306 311 316 316 310 91 111 134 143 146 289 329 335 335 334 322 252 228 219 225 218 183 101 102 136 163 191 155 104 105 135 245 217 233 245 234 248 261 278 286 302 305 285 299 310 305 290 302 310 295 296 304 313 326 335 334 332 329 326
233 233 231 231 231 231 234 234 236 238 238 241 243 243 244 247 249 252 258 261 265 269 271 275 278 283 287 291 298 303 314 321 306 176 132 125 141 155 313 309 314 320 321 319 281 232 228 225 232 207 151 72 134 224 229 193 190 176 146 182 231 189 242 269 269 283 288 282 277 295 306 305 313 317 300 305 324 308 290 298 301 306 320 328 329 331 332 331
234 235 235 234 235 234 237 238 239 241 241 244 245 247 249 250 253 256 260 263 267 269 270 273 275 279 284 288 295 301 321 340 181 164 169 182 219 301 308 305 305 313 319 309 247 226 227 220 213 188 173 316 122 242 256 193 174 177 213 237 243 180 242 281 289 298 298 294 290 301 312 308 311 305 291 295 284 271 291 304 307 308 316 323 328 332 335 334
236 237 237 237 239 237 239 240 241 243 243 246 247 249 251 252 255 256 258 262 265 268 270 272 274 279 284 287 291 297 310 311 207 206 237 254 276 293 298 296 296 307 314 293 232 223 224 215 206 194 182 324 183 204 234 184 186 214 263 258 259 245 249 280 291 294 293 294 293 298 301 299 301 296 293 278 261 276 293 302 307 313 319 325 334 337 340 343
238 237 238 238 239 238 239 241 243 245 246 247 248 250 252 253 255 256 259 261 265 268 271 273 276 279 283 286 288 292 278 264 266 263 263 265 271 280 284 283 286 300 304 272 230 222 222 215 210 200 162 38 218 214 243 217 198 200 270 272 271 266 262 280 292 294 291 289 288 292 293 288 280 287 296 283 278 287 300 305 307 316 327 334 341 345 351 352
238 238 238 238 239 239 240 242 245 246 248 249 251 253 255 257 258 261 263 265 269 271 272 274 277 279 282 285 286 286 273 274 281 270 264 260 262 270 272 270 271 288 293 253 229 222 224 219 213 208 184 213 215 212 258 291 220 185 242 279 294 288 287 292 295 292 291 289 291 293 280 279 281 280 279 282 288 299 305 307 311 320 334 340 341 343 352 353
239 239 238 239 240 240 241 243 246 248 251 253 255 258 260 262 263 266 268 270 273 273 275 276 278 280 281 280 281 282 277 281 283 262 259 257 259 262 259 259 260 273 279 248 228 218 222 221 219 222 229 236 217 223 123 78 263 205 226 278 298 295 297 298 292 288 289 288 290 287 274 283 292 294 268 275 291 319 302 306 320 330 338 344 339 334 337 341
240 239 239 240 240 241 243 245 248 250 253 257 259 262 264 266 267 269 271 273 274 275 276 276 277 279 277 274 261 257 277 279 271 263 258 255 257 258 252 252 257 259 259 250 234 224 222 223 227 225 234 240 193 222 178 153 267 261 273 283 283 290 295 294 286 286 289 287 280 257 264 284 290 101 261 271 297 312 305 323 337 344 348 349 343 326 323 327
240 240 239 239 241 243 245 247 251 254 257 261 263 266 267 269 270 271 272 273 273 273 273 273 276 273 272 268 235 230 270 274 269 270 263 259 256 255 253 248 248 242 238 244 244 237 228 226 226 209 222 220 177 240 232 219 286 309 320 302 291 302 301 289 281 286 290 290 272 232 252 289 288 165 253 269 299 311 321 351 360 6 8 355 334 311 310 312
239 240 239 240 242 245 249 252 256 259 263 265 266 268 268 269 269 269 270 270 270 270 270 271 271 268 269 262 247 251 271 271 270 271 267 264 255 249 248 239 234 229 236 256 263 253 236 228 222 215 227 201 173 295 237 267 321 307 327 314 302 334 316 285 276 278 261 257 267 218 280 306 234 222 257 279 300 315 339 12 20 22 17 333 287 292 299 304
242 242 242 244 246 249 253 256 258 261 262 263 264 264 265 266 267 268 269 270 271 271 272 271 269 270 265 258 259 266 271 266 265 265 263 261 252 242 236 233 235 242 253 262 260 248 234 226 219 221 230 207 194 225 258 308 326 296 336 12 310 353 321 283 251 125 329 283 228 159 279 289 264 250 269 306 320 331 351 17 16 10 24 225 227 282 302 308
247 248 248 249 250 252 253 255 257 257 258 258 259 260 263 265 266 269 271 273 274 272 272 271 270 270 258 257 269 271 264 262 259 257 259 258 251 242 239 243 248 254 256 250 242 233 225 221 218 221 224 221 218 221 295 335 348 299 335 24 338 348 279 294 16 216 324 318 197 156 225 264 276 280 294 320 330 336 342 2 9 357 132 157 158 152 321 345
250 251 251 251 250 251 252 253 253 253 254 254 256 259 261 264 265 267 270 270 270 271 271 271 272 268 260 265 270 268 262 260 257 255 256 256 253 250 249 250 248 247 239 228 226 220 212 207 210 208 204 213 200 128 348 350 1 13 315 306 330 194 265 309 323 224 228 316 158 143 228 269 274 285 299 314 323 328 332 352 19 24 112 123 130 111 74 44
249 249 249 249 248 248 250 250 250 251 251 253 256 258 259 261 263 265 266 267 268 269 270 273 271 259 263 275 268 262 260 256 254 252 249 249 250 250 248 241 231 228 224 221 220 214 205 202 203 200 194 188 129 86 42 358 335 356 204 250 272 223 272 321 330 42 98 51 75 155 241 286 277 282 291 301 317 326 337 4 72 100 104 110 107 98 93 76
246 245 245 246 246 246 247 248 248 248 250 252 254 256 259 261 263 264 263 264 267 269 272 271 268 262 259 263 260 256 253 247 244 242 241 241 238 235 227 219 214 213 213 209 211 206 200 193 184 196 163 87 102 98 64 320 287 307 320 225 246 223 223 295 310 358 50 61 330 289 227 259 269 280 285 298 321 332 360 68 116 108 102 101 97 92 88 81
241 241 241 242 243 244 244 245 245 245 246 247 249 254 258 260 262 263 263 264 263 270 276 251 227 283 264 249 246 249 247 235 233 232 230 224 217 212 204 208 207 197 184 177 188 182 183 174 143 155 26 48 114 122 166 230 216 219 210 213 256 247 229 251 265 303 12 28 299 302 269 260 272 280 287 312 335 341 14 85 113 104 101 96 90 85 78 73
237 237 238 238 239 239 240 241 241 241 241 242 245 248 255 263 266 264 261 257 245 238 262 225 198 192 266 251 237 234 235 226 226 226 222 211 202 197 192 192 185 175 158 149 183 170 160 116 93 173 242 193 192 174 199 215 193 194 198 186 209 245 254 242 245 266 341 354 292 270 265 268 280 281 302 335 343 349 16 81 101 93 95 90 85 82 77 73
233 233 232 233 233 234 235 236 237 237 236 237 242 247 256 265 275 273 261 251 244 241 246 238 224 228 243 261 219 217 231 233 228 222 215 208 198 188 179 174 167 166 155 154 188 166 149 148 180 218 216 206 209 204 210 208 140 147 162 189 210 231 266 264 262 275 146 301 277 265 271 275 280 285 331 352 357 9 22 75 90 85 88 85 84 82 78 78
228 228 228 228 228 229 230 231 232 233 232 233 237 244 248 245 254 286 281 268 260 254 252 252 250 248 248 247 235 238 247 238 230 221 214 205 191 181 179 171 151 171 219 138 125 110 140 179 223 227 220 210 208 205 218 247 109 144 198 255 263 236 259 263 259 288 65 146 264 333 337 283 279 302 355 12 29 25 33 77 83 83 87 84 85 83 83 85
223 224 225 226 225 225 227 229 231 231 231 231 235 240 243 247 255 273 290 287 274 263 255 252 251 251 249 245 244 248 246 238 229 217 209 197 186 187 184 164 147 190 204 114 101 80 145 215 239 236 219 171 145 147 179 214 199 192 177 229 270 246 275 285 281 319 45 126 267 338 343 282 287 27 33 38 62 54 61 84 85 89 89 84 87 87 89 91
220 219 221 224 224 224 225 229 232 233 233 233 236 240 249 260 265 275 283 284 279 270 258 251 248 248 247 246 245 243 237 235 232 217 208 196 188 192 181 160 155 162 163 175 163 152 190 238 245 234 175 157 217 123 124 142 170 182 164 160 252 250 273 280 294 338 17 100 267 248 258 279 298 76 62 62 82 77 77 86 85 87 86 85 90 91 92 92
216 214 218 221 222 222 223 228 231 234 236 236 238 240 249 260 262 278 284 275 283 274 260 251 246 245 246 244 241 237 231 229 230 217 208 200 187 183 188 177 153 151 201 203 185 187 225 242 237 147 142 172 209 156 129 143 223 240 203 186 229 236 210 228 281 345 350 12 4 1 326 294 305 30 93 87 84 75 73 79 76 77 84 90 94 94 93 92
214 213 214 215 217 219 223 230 231 231 235 236 238 238 242 251 255 279 300 304 287 275 262 245 237 240 237 235 233 223 222 226 226 217 206 200 190 175 185 183 167 206 214 188 182 220 249 251 150 96 115 162 188 203 172 166 197 287 232 205 219 222 213 230 314 8 18 351 334 23 6 291 315 327 201 130 70 58 61 63 64 70 83 92 93 93 94 93
215 214 210 210 212 213 224 235 232 227 233 236 235 231 232 232 235 281 11 15 289 249 221 209 209 218 216 218 208 186 196 232 218 210 196 195 196 183 165 173 172 219 187 150 167 229 256 261 176 150 140 146 186 240 222 170 142 299 247 203 209 199 179 186 160 89 118 260 292 43 85 262 317 323 242 140 82 57 54 50 58 73 84 92 94 96 99 98
219 215 208 208 210 209 217 229 228 222 225 232 225 214 214 202 184 127 53 349 275 194 157 172 173 180 191 181 165 157 168 197 180 193 187 186 193 187 181 186 164 197 156 130 168 239 227 291 98 150 135 148 195 244 226 161 125 249 239 146 152 156 162 169 141 139 212 251 317 15 108 259 291 287 266 130 105 60 48 45 56 82 94 99 103 105 106 103
221 215 205 204 208 215 217 221 226 221 217 222 212 200 193 176 170 127 81 281 266 131 134 167 158 164 168 162 161 153 140 142 140 184 184 181 187 183 197 205 173 177 150 139 206 259 192 200 208 168 149 189 209 233 197 157 147 243 201 111 119 137 145 136 111 109 354 28 312 306 103 279 265 268 326 98 124 68 137 187 125 116 116 114 117 115 111 108
220 213 203 197 205 220 223 225 227 221 216 211 202 196 179 162 155 102 87 239 210 107 132 154 150 156 150 156 173 159 119 128 116 170 171 176 184 168 173 198 164 144 116 137 204 257 93 226 224 160 160 211 212 287 192 169 191 204 129 92 69 71 83 76 94 111 48 56 250 245 183 196 270 276 322 87 181 239 194 190 182 149 136 130 129 124 117 113
219 212 203 196 208 219 220 224 222 216 213 206 202 191 172 159 136 118 224 229 146 106 128 149 166 162 144 142 180 212 140 97 107 139 150 167 175 147 122 155 130 120 58 15 222 261 325 328 254 158 180 193 140 56 48 137 138 123 103 70 39 34 56 54 65 97 63 268 246 235 198 184 267 283 244 159 174 248 195 168 179 169 154 147 140 131 124 119
217 212 206 203 211 216 218 221 217 207 206 206 201 183 168 161 124 191 220 211 61 128 124 146 183 151 147 142 162 183 117 58 138 142 142 144 158 142 118 132 101 86 8 336 302 307 337 343 280 242 187 132 100 61 34 45 84 103 90 73 45 340 19 28 356 52 110 252 261 264 204 169 217 261 234 226 311 280 220 188 178 175 169 160 148 138 131 126
216 213 211 210 212 217 220 222 218 211 208 206 200 182 164 176 221 209 210 82 89 199 159 172 188 154 155 131 145 172 129 131 172 150 147 137 157 182 171 168 159 91 341 250 252 340 315 246 269 320 225 163 111 64 24 7 36 84 94 89 80 319 352 353 312 357 230 248 265 276 164 165 234 240 209 276 307 298 282 235 185 172 171 165 153 145 138 133
217 213 214 216 217 220 222 221 220 218 214 207 200 187 162 211 217 188 175 170 199 194 138 133 127 135 146 137 177 177 132 175 189 163 149 127 153 218 252 212 163 130 160 196 185 27 296 294 305 83 266 202 161 139 178 266 122 143 146 128 130 148 174 277 269 271 269 264 269 264 158 206 269 260 203 268 296 308 304 221 181 170 165 162 156 150 145 141
219 215 216 217 220 223 223 223 222 222 218 207 198 190 196 232 224 153 178 204 258 49 79 103 110 118 143 169 211 175 144 207 179 149 124 130 151 219 243 235 185 131 110 149 168 167 184 300 217 175 218 188 179 181 165 145 148 178 159 136 148 155 171 228 225 212 251 283 297 283 232 196 215 221 216 238 357 29 82 154 165 165 162 161 159 155 152 149
220 219 219 221 226 225 225 227 225 225 220 206 192 191 218 224 272 153 190 202 187 81 37 60 106 119 179 244 252 188 184 222 166 135 142 164 175 197 201 209 192 158 134 159 214 160 157 250 246 226 165 160 178 191 135 112 125 217 126 114 165 181 161 191 203 178 185 302 299 242 225 218 184 162 193 117 64 71 114 141 154 162 165 166 165 162 158 155
222 222 223 227 228 225 225 226 225 228 220 203 189 216 214 211 188 193 199 167 166 147 113 71 87 117 207 233 238 219 205 154 149 149 193 196 207 209 209 220 190 179 169 159 197 167 143 261 275 340 58 153 165 180 142 131 185 168 130 178 215 175 126 120 260 42 78 262 275 203 235 288 321 193 356 77 66 78 128 150 160 166 170 173 172 167 163 161
222 223 222 226 227 225 227 225 225 223 212 198 202 222 207 204 192 194 239 162 149 141 136 158 181 167 194 200 204 207 182 138 154 166 201 212 226 200 203 249 192 186 196 183 208 201 147 253 268 141 161 213 105 123 82 47 132 128 183 212 192 119 97 101 251 349 35 249 275 211 210 249 244 238 318 64 144 180 194 183 175 177 180 182 178 170 167 167
226 225 222 225 227 227 228 227 222 212 201 195 221 219 198 196 193 181 213 178 113 123 147 195 203 176 182 192 202 186 169 178 173 172 190 207 242 189 170 217 199 194 206 192 205 252 130 225 276 148 161 250 36 100 78 8 61 131 186 191 115 141 167 95 159 225 245 245 279 288 239 227 210 201 198 202 195 190 199 196 189 195 194 189 182 176 174 174
223 218 219 226 226 226 226 222 210 199 194 202 220 214 190 183 195 189 187 179 108 137 172 210 200 149 172 179 179 169 174 184 170 172 186 180 227 194 161 186 200 207 210 182 174 249 110 163 269 306 174 233 33 89 171 254 356 79 112 59 46 163 171 148 151 165 186 223 272 295 298 265 232 197 184 198 191 176 182 189 198 203 195 189 182 179 181 182
210 203 217 222 220 220 212 202 195 191 194 220 207 207 179 173 196 195 188 184 154 161 191 207 173 158 180 182 189 175 172 179 171 177 201 184 203 216 190 177 153 167 204 180 178 142 98 168 233 294 335 117 166 202 185 185 174 141 167 205 251 150 130 194 203 126 138 178 225 268 278 269 251 197 184 193 180 172 180 182 190 198 193 189 184 180 186 191
197 195 226 208 205 202 191 186 190 189 195 228 198 188 184 164 176 193 195 192 182 155 150 164 177 179 171 175 206 181 153 163 177 184 215 203 191 219 220 164 151 146 120 139 194 199 162 167 176 211 211 180 225 237 185 188 178 162 188 201 189 167 130 189 246 217 132 170 181 206 259 269 259 204 179 179 169 176 184 179 184 196 195 191 187 184 193 208
187 185 209 191 190 189 182 180 202 181 182 212 184 151 156 148 157 182 186 178 173 155 130 144 180 183 178 187 190 166 151 163 187 193 213 214 199 197 180 153 166 164 133 138 215 193 128 125 146 196 204 210 255 273 163 193 158 132 193 201 158 151 140 173 227 227 154 209 158 139 256 272 272 281 200 178 177 180 184 182 185 194 196 194 191 191 206 229
183 172 181 184 185 184 180 188 247 189 194 171 131 110 127 138 168 181 171 168 163 150 159 178 187 183 200 197 169 172 181 182 185 187 196 213 213 199 164 156 161 155 137 157 214 156 109 114 160 247 322 326 312 327 43 71 99 129 249 174 149 169 157 176 207 171 151 223 157 111 251 259 305 328 24 164 177 182 186 187 189 196 199 197 196 202 225 246
169 155 167 179 182 183 186 208 207 207 219 145 114 111 157 168 203 188 171 185 180 155 158 179 180 183 193 135 145 192 208 204 189 187 192 197 208 191 153 158 167 170 179 224 184 175 186 164 146 184 297 326 327 327 323 331 165 191 226 194 168 141 111 105 127 118 201 213 164 182 248 249 302 336 25 135 162 184 196 195 195 202 205 202 199 209 237 253
140 125 151 172 179 188 210 251 177 200 211 196 192 194 173 289 220 211 216 203 185 166 156 166 147 142 144 118 93 195 223 236 220 188 188 198 240 245 178 187 187 188 224 253 176 174 194 190 153 178 219 233 226 214 220 229 201 191 202 201 196 162 148 145 131 169 228 198 157 208 247 262 322 328 320 233 170 190 210 206 208 216 212 207 208 230 260 264
145 120 121 170 186 209 246 256 178 162 196 200 213 198 194 222 229 211 214 223 223 202 147 114 108 91 129 167 165 208 224 237 225 165 171 201 239 296 233 241 231 225 243 220 165 152 146 218 202 204 226 232 219 217 207 150 152 194 204 198 199 180 165 152 140 192 219 177 198 230 218 215 281 237 225 238 210 206 223 217 218 223 216 213 228 258 268 263
145 166 166 166 202 236 254 253 230 191 149 182 189 189 202 211 223 207 203 212 220 201 172 51 168 176 212 186 182 213 212 200 194 180 163 193 235 318 355 218 230 225 222 185 163 138 115 227 218 214 233 239 197 196 193 162 177 191 192 202 205 174 156 166 191 202 173 172 244 239 156 176 246 225 204 219 217 216 225 221 223 226 223 229 249 264 261 251
153 184 182 176 181 216 223 230 218 208 202 187 190 198 203 204 206 204 199 200 199 187 183 251 213 211 216 193 179 211 199 192 212 203 185 185 191 82 345 255 209 207 195 169 165 137 146 224 212 194 221 227 133 168 170 166 189 182 187 203 196 176 176 187 205 202 174 197 245 234 159 200 241 229 191 207 217 218 224 230 234 234 238 251 263 261 250 238
175 172 182 186 192 199 202 201 193 199 214 206 205 230 218 210 210 206 178 142 179 199 195 209 219 212 211 203 188 201 203 199 216 211 193 195 189 161 189 253 222 200 178 161 173 149 166 216 182 164 198 171 120 229 143 149 194 226 232 228 200 185 191 196 210 212 198 223 255 246 211 229 243 229 197 216 227 231 239 246 247 246 252 261 257 247 240 231
196 190 176 184 204 223 198 189 176 193 212 203 215 231 219 216 219 213 182 165 185 204 197 212 228 211 200 200 197 213 221 208 218 222 184 176 202 195 204 211 168 168 177 171 192 184 192 212 116 131 190 210 222 327 92 140 188 224 252 251 219 179 199 213 222 214 201 245 252 251 255 259 257 241 218 229 233 230 240 248 252 257 257 247 238 235 234 227
208 205 188 174 196 196 186 184 170 181 207 200 213 221 207 222 222 208 208 212 211 207 187 210 229 215 188 204 204 219 227 218 227 237 199 192 210 206 209 196 162 162 177 176 189 186 188 210 62 102 205 235 201 142 125 111 115 251 258 250 208 185 214 217 206 197 204 226 239 248 254 257 261 234 189 225 230 222 232 243 251 258 251 234 230 230 225 221
210 213 206 191 199 188 178 176 169 186 211 207 211 214 207 220 213 184 209 239 225 225 215 213 220 208 198 216 214 226 236 231 233 240 215 211 217 198 201 185 156 163 173 170 172 147 164 168 132 164 207 216 97 146 131 84 49 259 255 228 190 205 226 219 209 220 213 206 213 228 236 246 264 62 185 242 236 229 242 250 252 254 246 233 233 229 222 219
Height
1547 1548 1548 1548 1548 1548 1548 1548 1549 1549 1549 1549 1550 1550 1550 1550 1550 1551 1551 1551 1551 1551 1551 1551 1550 1550 1550 1549 1549 1548 1548 1547 1547 1546 1544 1543 1543 1544 1545 1545 1545 1545 1545 1545 1544 1544 1544 1544 1544 1544 1544 1545 1545 1545 1545 1545 1545 1545 1548 1551 1551 1555 1553 1547 1548 1547 1545 1544 1542 1542 1542 1542 1541 1539 1539 1538 1537 1536 1534 1533 1533 1534 1534 1534 1534 1533 1533 1532
1547 1547 1548 1548 1548 1548 1548 1548 1549 1549 1549 1549 1550 1550 1550 1550 1550 1550 1550 1551 1551 1550 1550 1550 1550 1549 1549 1549 1548 1548 1547 1547 1546 1545 1544 1543 1543 1544 1545 1545 1545 1545 1545 1544 1544 1544 1544 1544 1544 1545 1544 1545 1545 1545 1545 1545 1545 1546 1551 1552 1551 1552 1548 1543 1544 1543 1543 1543 1541 1541 1541 1541 1540 1539 1538 1537 1536 1535 1533 1530 1530 1530 1531 1533 1532 1532 1531 1530
1546 1547 1547 1547 1547 1548 1548 1548 1548 1548 1549 1549 1549 1549 1549 1549 1550 1550 1550 1550 1550 1550 1550 1549 1549 1549 1549 1548 1548 1547 1546 1546 1545 1544 1544 1543 1544 1544 1545 1545 1544 1544 1544 1544 1544 1544 1544 1544 1544 1544 1544 1544 1545 1545 1545 1545 1546 1547 1550 1551 1549 1547 1545 1543 1543 1542 1542 1542 1541 1541 1540 1540 1540 1539 1538 1537 1535 1534 1532 1529 1528 1528 1528 1530 1531 1530 1529 1528
1545 1546 1546 1546 1547 1547 1547 1547 1548 1548 1548 1548 1548 1549 1549 1549 1549 1549 1549 1549 1549 1549 1549 1549 1549 1548 1548 1548 1548 1547 1546 1545 1543 1544 1544 1544 1544 1544 1544 1544 1544 1544 1544 1544 1544 1544 1544 1544 1544 1544 1544 1545 1545 1545 1545 1545 1546 1547 1548 1548 1546 1545 1544 1542 1541 1541 1541 1542 1541 1540 1540 1539 1538 1538 1537 1536 1536 1534 1530 1527 1528 1528 1527 1528 1529 1528 1527 1526
1544 1545 1545 1545 1546 1546 1546 1546 1547 1547 1547 1547 1548 1548 1548 1548 1548 1548 1549 1548 1548 1548 1548 1548 1548 1548 1547 1547 1547 1547 1547 1546 1543 1543 1544 1544 1544 1544 1544 1544 1543 1543 1543 1543 1543 1543 1544 1544 1544 1544 1545 1545 1545 1545 1545 1545 1546 1546 1545 1544 1544 1545 1544 1541 1541 1542 1541 1541 1540 1540 1539 1538 1538 1538 1536 1536 1536 1533 1528 1527 1527 1528 1528 1528 1527 1527 1526 1525
1543 1544 1544 1545 1545 1545 1545 1545 1546 1546 1546 1547 1547 1547 1547 1547 1547 1548 1548 1548 1547 1547 1547 1547 1547 1547 1547 1547 1547 1546 1547 1547 1544 1544 1544 1543 1543 1543 1543 1543 1543 1543 1542 1542 1543 1543 1543 1544 1544 1544 1544 1545 1545 1545 1545 1545 1546 1546 1545 1543 1543 1544 1543 1540 1541 1541 1540 1541 1539 1539 1539 1538 1538 1537 1535 1534 1532 1530 1527 1527 1527 1528 1528 1528 1527 1526 1524 1523
1542 1543 1543 1544 1544 1544 1544 1545 1545 1545 1545 1546 1546 1546 1546 1546 1547 1547 1547 1547 1546 1546 1546 1546 1546 1546 1546 1546 1546 1545 1545 1544 1543 1543 1543 1543 1543 1542 1543 1543 1543 1542 1542 1542 1542 1543 1543 1543 1544 1544 1544 1545 1545 1545 1545 1545 1545 1546 1545 1543 1543 1543 1542 1540 1540 1540 1540 1539 1538 1539 1538 1536 1537 1536 1534 1530 1527 1526 1526 1527 1527 1527 1527 1527 1526 1524 1523 1522
1541 1542 1542 1543 1543 1543 1544 1544 1544 1544 1544 1544 1545 1545 1545 1545 1545 1545 1546 1545 1545 1545 1545 1545 1545 1545 1545 1545 1544 1544 1543 1541 1542 1542 1541 1541 1541 1541 1542 1542 1542 1542 1542 1542 1542 1542 1543 1543 1543 1544 1544 1545 1545 1544 1545 1545 1545 1546 1545 1543 1542 1542 1541 1540 1539 1538 1538 1538 1537 1537 1536 1533 1534 1535 1533 1527 1524 1525 1526 1526 1526 1526 1526 1526 1525 1524 1523 1522
1540 1540 1541 1541 1542 1542 1542 1543 1543 1543 1543 1543 1543 1543 1544 1544 1544 1544 1544 1544 1544 1544 1543 1543 1543 1543 1543 1543 1543 1543 1540 1539 1540 1540 1540 1540 1540 1540 1541 1541 1541 1541 1541 1541 1541 1542 1542 1543 1543 1543 1544 1544 1544 1544 1545 1545 1545 1544 1544 1543 1542 1541 1540 1539 1538 1536 1536 1536 1536 1536 1533 1531 1532 1533 1529 1524 1523 1525 1525 1525 1525 1525 1525 1525 1525 1524 1523 1522
1538 1539 1539 1540 1540 1541 1541 1541 1541 1541 1542 1542 1542 1542 1542 1542 1543 1543 1542 1542 1542 1542 1542 1541 1541 1542 1542 1542 1543 1542 1539 1538 1539 1539 1539 1539 1539 1539 1539 1540 1540 1540 1541 1541 1541 1541 1542 1542 1542 1543 1543 1544 1544 1544 1545 1545 1545 1544 1544 1543 1542 1541 1539 1538 1536 1534 1535 1534 1534 1533 1531 1530 1531 1532 1527 1522 1523 1524 1524 1524 1524 1525 1524 1524 1524 1524 1523 1522
1537 1537 1538 1538 1538 1539 1539 1540 1540 1540 1540 1540 1541 1541 1541 1541 1541 1541 1541 1541 1540 1540 1540 1540 1540 1540 1540 1540 1541 1539 1537 1538 1538 1538 1538 1538 1538 1538 1538 1539 1539 1540 1540 1540 1540 1541 1541 1542 1542 1543 1543 1543 1544 1544 1544 1544 1544 1544 1543 1542 1541 1540 1537 1536 1534 1533 1533 1532 1531 1531 1530 1529 1531 1531 1525 1521 1523 1523 1523 1524 1524 1524 1524 1524 1523 1523 1522 1522
1535 1536 1536 1537 1537 1537 1538 1538 1538 1538 1539 1539 1539 1539 1539 1539 1539 1539 1539 1539 1539 1539 1538 1538 1538 1538 1539 1538 1537 1536 1536 1536 1536 1536 1537 1537 1537 1537 1538 1538 1538 1539 1539 1539 1540 1540 1541 1541 1542 1542 1542 1543 1544 1544 1543 1543 1544 1543 1543 1543 1540 1540 1536 1532 1532 1532 1532 1532 1530 1531 1531 1528 1528 1527 1521 1521 1523 1523 1523 1523 1524 1524 1523 1523 1523 1522 1522 1521
1534 1534 1535 1535 1536 1536 1536 1536 1537 1537 1537 1537 1537 1537 1537 1537 1537 1537 1537 1537 1537 1537 1537 1537 1537 1537 1537 1535 1533 1533 1534 1534 1534 1535 1535 1535 1536 1536 1536 1537 1537 1538 1538 1538 1539 1539 1540 1540 1541 1542 1542 1542 1543 1543 1543 1543 1543 1542 1544 1544 1542 1543 1537 1530 1531 1532 1531 1532 1530 1532 1535 1529 1524 1522 1520 1522 1523 1522 1523 1523 1524 1524 1523 1523 1522 1522 1521 1521
1532 1533 1533 1534 1534 1535 1535 1535 1535 1535 1535 1536 1535 1536 1536 1535 1535 1535 1535 1535 1535 1535 1535 1535 1535 1535 1535 1532 1531 1532 1532 1532 1533 1533 1533 1533 1534 1535 1535 1536 1536 1536 1537 1537 1538 1538 1539 1540 1541 1541 1541 1542 1542 1542 1543 1543 1543 1543 1544 1545 1547 1547 1538 1529 1532 1532 1530 1531 1530 1532 1538 1531 1523 1521 1521 1522 1522 1522 1523 1524 1524 1523 1523 1523 1522 1522 1521 1520
1530 1531 1532 1532 1533 1533 1533 1534 1534 1534 1534 1534 1534 1534 1534 1534 1534 1533 1534 1533 1533 1533 1533 1533 1533 1533 1533 1530 1529 1530 1529 1530 1531 1531 1532 1532 1532 1533 1534 1534 1535 1535 1536 1536 1537 1538 1538 1539 1540 1540 1541 1541 1541 1543 1544 1545 1545 1546 1546 1546 1549 1549 1539 1531 1531 1531 1530 1530 1530 1533 1536 1532 1525 1522 1521 1522 1523 1523 1523 1523 1524 1523 1522 1522 1522 1522 1521 1520
1528 1529 1530 1530 1531 1531 1531 1532 1532 1532 1532 1532 1532 1532 1532 1532 1532 1532 1532 1532 1532 1532 1532 1532 1532 1533 1532 1528 1527 1528 1528 1528 1529 1529 1530 1530 1531 1532 1532 1533 1534 1534 1534 1535 1536 1537 1538 1539 1539 1540 1540 1540 1542 1544 1546 1548 1547 1548 1548 1546 1546 1547 1544 1537 1531 1530 1531 1531 1531 1533 1534 1532 1526 1521 1520 1522 1523 1523 1524 1523 1523 1522 1522 1522 1522 1521 1521 1521
1526 1527 1528 1528 1529 1529 1530 1530 1530 1530 1531 1531 1531 1531 1531 1531 1531 1531 1531 1531 1531 1531 1531 1531 1531 1532 1530 1526 1526 1526 1526 1527 1527 1528 1528 1529 1530 1530 1531 1532 1532 1533 1534 1535 1535 1536 1537 1538 1539 1539 1540 1541 1542 1544 1549 1552 1548 1547 1549 1548 1546 1546 1546 1541 1533 1531 1532 1532 1533 1534 1534 1531 1525 1520 1520 1522 1523 1523 1523 1523 1522 1522 1522 1522 1522 1522 1521 1521
1524 1525 1526 1526 1527 1528 1528 1528 1529 1529 1529 1529 1530 1530 1530 1530 1530 1530 1529 1529 1530 1530 1531 1530 1531 1532 1528 1523 1524 1524 1525 1526 1526 1527 1527 1528 1529 1529 1530 1531 1531 1532 1533 1534 1535 1536 1537 1537 1539 1539 1541 1543 1542 1543 1548 1547 1541 1539 1544 1546 1545 1545 1545 1542 1537 1532 1531 1532 1533 1534 1534 1530 1525 1522 1520 1522 1522 1521 1522 1522 1522 1522 1522 1523 1522 1522 1522 1521
1522 1523 1524 1525 1525 1526 1526 1527 1527 1527 1528 1528 1528 1529 1529 1529 1528 1528 1528 1528 1528 1528 1528 1527 1527 1529 1526 1521 1522 1523 1524 1525 1525 1525 1526 1527 1528 1528 1530 1530 1531 1532 1533 1534 1534 1535 1536 1537 1539 1540 1540 1540 1539 1539 1538 1535 1533 1535 1538 1541 1542 1542 1541 1539 1536 1533 1532 1533 1533 1533 1533 1530 1525 1522 1522 1523 1522 1521 1521 1522 1522 1523 1523 1523 1523 1523 1523 1522
1520 1521 1522 1523 1524 1524 1524 1525 1526 1526 1527 1527 1527 1528 1528 1528 1527 1526 1526 1525 1525 1524 1524 1524 1523 1524 1523 1522 1522 1523 1523 1524 1524 1524 1525 1526 1527 1528 1529 1530 1531 1532 1532 1533 1534 1535 1536 1538 1539 1536 1534 1534 1534 1533 1532 1532 1535 1537 1539 1540 1542 1542 1539 1535 1534 1532 1532 1533 1532 1532 1532 1529 1525 1522 1524 1524 1522 1522 1522 1523 1524 1524 1524 1524 1524 1524 1524 1524
1518 1519 1520 1521 1522 1523 1523 1523 1524 1525 1525 1526 1526 1527 1527 1527 1527 1526 1524 1523 1522 1522 1522 1522 1522 1522 1521 1522 1522 1522 1522 1523 1523 1523 1524 1525 1526 1527 1528 1530 1530 1532 1533 1533 1534 1535 1536 1538 1536 1530 1529 1530 1531 1532 1533 1535 1537 1537 1539 1540 1541 1542 1539 1534 1532 1531 1531 1533 1532 1532 1532 1528 1524 1525 1526 1525 1524 1525 1526 1526 1526 1526 1526 1526 1526 1526 1526 1526
1517 1517 1519 1520 1520 1521 1522 1522 1523 1523 1524 1525 1525 1526 1526 1526 1526 1526 1525 1522 1519 1519 1520 1519 1519 1519 1518 1520 1520 1521 1522 1521 1522 1522 1523 1524 1525 1526 1527 1529 1530 1531 1533 1533 1534 1536 1539 1538 1530 1526 1528 1530 1531 1533 1534 1536 1537 1538 1540 1541 1540 1540 1538 1533 1531 1532 1532 1532 1531 1532 1532 1526 1523 1527 1529 1527 1528 1530 1530 1528 1529 1528 1528 1528 1528 1528 1528 1528
1515 1516 1517 1518 1519 1520 1520 1521 1521 1522 1523 1523 1524 1525 1525 1525 1525 1525 1525 1524 1518 1515 1516 1516 1515 1514 1515 1517 1517 1519 1519 1519 1519 1520 1521 1523 1523 1525 1526 1527 1529 1531 1532 1533 1533 1537 1538 1533 1525 1525 1529 1530 1532 1533 1534 1536 1537 1538 1539 1541 1539 1538 1538 1534 1531 1532 1532 1533 1532 1531 1532 1526 1524 1528 1531 1531 1532 1531 1532 1531 1530 1530 1529 1529 1530 1530 1529 1529
1513 1514 1516 1516 1517 1518 1518 1520 1520 1521 1522 1522 1523 1524 1524 1525 1525 1525 1525 1524 1518 1513 1511 1512 1511 1511 1511 1513 1514 1516 1516 1516 1517 1517 1519 1520 1522 1524 1524 1525 1529 1530 1531 1530 1531 1533 1530 1525 1523 1525 1528 1530 1531 1533 1535 1536 1537 1537 1537 1538 1536 1534 1536 1534 1532 1533 1532 1534 1534 1530 1529 1525 1522 1525 1530 1533 1533 1532 1533 1532 1532 1532 1531 1531 1531 1531 1531 1530
1511 1513 1514 1514 1516 1516 1517 1518 1518 1520 1520 1520 1522 1523 1524 1524 1524 1525 1525 1524 1520 1511 1508 1508 1508 1508 1508 1510 1511 1512 1514 1514 1514 1515 1516 1518 1520 1522 1523 1524 1526 1528 1529 1530 1532 1533 1527 1523 1524 1526 1528 1529 1530 1532 1533 1534 1535 1535 1532 1532 1530 1529 1532 1533 1533 1534 1533 1534 1535 1533 1532 1527 1520 1519 1526 1532 1532 1533 1534 1534 1534 1534 1533 1533 1533 1533 1533 1532
1509 1511 1512 1513 1514 1514 1516 1516 1517 1519 1518 1520 1521 1521 1524 1523 1525 1525 1524 1529 1523 1509 1506 1506 1505 1505 1505 1507 1509 1511 1514 1513 1511 1513 1515 1517 1518 1519 1521 1523 1524 1525 1527 1530 1533 1531 1526 1523 1524 1526 1527 1529 1530 1531 1530 1531 1534 1534 1529 1527 1529 1529 1531 1533 1533 1534 1534 1535 1536 1536 1536 1534 1526 1517 1521 1529 1532 1534 1536 1535 1536 1536 1535 1535 1534 1534 1534 1533
1507 1509 1510 1511 1512 1513 1514 1515 1516 1517 1517 1519 1519 1521 1523 1522 1525 1525 1525 1534 1522 1501 1500 1504 1503 1503 1503 1505 1507 1510 1513 1510 1509 1512 1513 1515 1517 1517 1520 1522 1523 1524 1525 1529 1532 1528 1523 1523 1525 1526 1527 1529 1529 1528 1528 1529 1531 1530 1527 1527 1529 1529 1530 1532 1532 1532 1535 1536 1537 1536 1535 1538 1535 1523 1520 1527 1531 1535 1537 1537 1537 1537 1536 1536 1535 1536 1535 1534
1505 1507 1508 1509 1510 1511 1512 1514 1515 1515 1517 1518 1518 1521 1522 1522 1526 1523 1529 1537 1515 1493 1497 1501 1501 1502 1502 1505 1507 1507 1509 1508 1509 1512 1512 1513 1515 1516 1518 1519 1521 1522 1523 1526 1528 1525 1522 1523 1524 1525 1527 1528 1526 1524 1525 1527 1527 1527 1527 1529 1529 1529 1530 1531 1532 1534 1539 1541 1538 1536 1536 1540 1535 1524 1524 1529 1529 1532 1536 1537 1538 1537 1537 1536 1536 1536 1536 1535
1502 1504 1506 1508 1509 1510 1511 1512 1513 1514 1516 1517 1518 1520 1521 1524 1524 1523 1535 1533 1503 1490 1497 1498 1499 1502 1502 1505 1506 1506 1508 1508 1509 1511 1512 1514 1514 1515 1517 1518 1519 1521 1523 1524 1524 1522 1522 1523 1523 1524 1525 1524 1523 1524 1525 1525 1525 1525 1528 1530 1530 1532 1533 1533 1534 1535 1539 1543 1538 1534 1534 1537 1531 1519 1522 1528 1525 1527 1532 1536 1538 1537 1537 1537 1536 1537 1536 1536
1500 1502 1504 1506 1507 1508 1509 1509 1511 1513 1515 1516 1518 1519 1521 1523 1523 1529 1537 1520 1494 1492 1499 1497 1499 1501 1501 1504 1507 1507 1507 1508 1509 1510 1513 1514 1514 1515 1515 1517 1518 1520 1522 1523 1523 1522 1522 1523 1523 1522 1522 1521 1522 1526 1527 1526 1526 1526 1529 1529 1530 1534 1535 1537 1539 1537 1539 1538 1533 1532 1531 1533 1532 1521 1520 1526 1526 1529 1532 1535 1538 1538 1538 1538 1537 1537 1536 1536
1497 1499 1501 1503 1503 1505 1505 1506 1509 1512 1513 1515 1517 1519 1521 1522 1524 1528 1522 1501 1491 1496 1496 1498 1501 1499 1500 1503 1505 1506 1507 1509 1509 1510 1512 1513 1514 1515 1515 1517 1518 1522 1524 1523 1522 1523 1522 1522 1522 1520 1520 1521 1522 1524 1527 1527 1527 1527 1527 1527 1529 1532 1533 1536 1539 1539 1539 1532 1530 1537 1537 1534 1533 1522 1520 1528 1532 1534 1533 1532 1535 1536 1537 1537 1537 1537 1536 1536
1494 1496 1498 1499 1500 1501 1502 1504 1507 1510 1511 1513 1515 1516 1518 1523 1521 1514 1504 1492 1492 1493 1490 1495 1499 1498 1500 1502 1502 1505 1507 1508 1509 1509 1511 1513 1514 1514 1513 1513 1515 1520 1525 1523 1522 1522 1520 1519 1520 1520 1519 1520 1521 1524 1528 1529 1528 1528 1528 1529 1534 1538 1539 1538 1538 1541 1540 1532 1532 1539 1537 1534 1529 1519 1523 1530 1532 1533 1532 1530 1532 1533 1535 1535 1536 1536 1536 1536
1491 1493 1495 1496 1497 1498 1499 1502 1505 1507 1508 1510 1513 1511 1514 1517 1506 1495 1494 1491 1488 1487 1488 1491 1495 1497 1499 1500 1501 1504 1505 1506 1507 1509 1511 1513 1514 1514 1512 1512 1512 1512 1517 1521 1523 1522 1519 1518 1519 1519 1518 1517 1518 1522 1525 1526 1528 1528 1526 1529 1534 1541 1545 1541 1541 1546 1539 1531 1536 1539 1533 1530 1522 1518 1528 1532 1530 1531 1529 1527 1529 1530 1533 1533 1534 1535 1535 1536
1487 1490 1491 1492 1493 1494 1496 1499 1501 1503 1505 1507 1509 1510 1513 1508 1493 1485 1489 1487 1484 1487 1489 1490 1494 1498 1498 1498 1499 1500 1502 1505 1506 1508 1510 1512 1514 1514 1512 1512 1512 1510 1511 1518 1520 1520 1520 1517 1513 1514 1514 1514 1515 1516 1518 1521 1526 1528 1527 1527 1528 1532 1535 1534 1533 1534 1529 1528 1537 1538 1530 1521 1514 1519 1531 1531 1530 1531 1528 1527 1529 1530 1532 1533 1533 1534 1534 1535
1484 1486 1488 1489 1490 1490 1493 1496 1498 1500 1503 1503 1504 1508 1507 1499 1491 1488 1487 1484 1485 1487 1489 1491 1494 1497 1499 1498 1498 1497 1497 1501 1505 1508 1509 1511 1511 1509 1507 1507 1509 1509 1509 1513 1515 1518 1521 1514 1508 1510 1511 1512 1513 1514 1516 1519 1523 1529 1530 1528 1526 1523 1522 1528 1533 1533 1532 1533 1535 1532 1524 1518 1519 1526 1532 1531 1530 1531 1529 1528 1530 1530 1532 1532 1532 1533 1533 1535
1481 1482 1484 1484 1484 1486 1489 1492 1495 1497 1499 1499 1500 1501 1496 1490 1489 1488 1483 1481 1482 1484 1489 1493 1493 1496 1500 1499 1498 1498 1496 1498 1504 1507 1508 1509 1508 1506 1504 1501 1503 1506 1503 1505 1509 1514 1518 1513 1508 1510 1511 1511 1513 1513 1515 1516 1518 1528 1530 1523 1523 1523 1519 1525 1535 1540 1541 1535 1529 1527 1520 1518 1523 1525 1529 1531 1530 1531 1531 1530 1530 1530 1531 1531 1532 1532 1533 1534
1476 1477 1478 1479 1480 1483 1486 1488 1491 1493 1494 1494 1494 1491 1487 1484 1484 1483 1481 1480 1480 1481 1485 1490 1490 1492 1496 1497 1496 1496 1496 1497 1502 1504 1505 1507 1503 1500 1500 1498 1498 1500 1497 1497 1501 1504 1508 1508 1508 1509 1509 1510 1513 1513 1515 1516 1516 1523 1524 1518 1520 1525 1523 1525 1530 1536 1542 1537 1529 1526 1520 1515 1515 1516 1526 1533 1530 1530 1531 1529 1530 1530 1530 1530 1531 1531 1532 1533
1472 1473 1474 1474 1477 1480 1482 1485 1487 1488 1489 1489 1486 1483 1482 1481 1480 1480 1480 1479 1479 1480 1483 1485 1485 1485 1490 1493 1492 1493 1495 1497 1501 1502 1502 1503 1497 1492 1494 1495 1494 1496 1495 1495 1498 1500 1503 1506 1508 1509 1509 1510 1512 1513 1515 1517 1517 1518 1518 1516 1519 1521 1523 1529 1531 1531 1535 1536 1527 1521 1519 1516 1511 1510 1519 1524 1525 1528 1529 1529 1530 1529 1528 1529 1529 1530 1531 1531
1469 1471 1470 1470 1473 1476 1478 1481 1482 1483 1485 1483 1480 1479 1478 1477 1478 1478 1479 1479 1479 1480 1482 1482 1482 1484 1487 1488 1488 1490 1493 1494 1498 1500 1498 1498 1495 1490 1490 1491 1492 1494 1495 1495 1497 1500 1503 1505 1507 1510 1510 1510 1512 1512 1513 1516 1517 1518 1518 1519 1519 1519 1520 1525 1529 1527 1527 1530 1526 1518 1515 1510 1506 1507 1507 1508 1516 1523 1524 1526 1527 1525 1526 1527 1527 1528 1529 1529
1465 1467 1467 1466 1469 1472 1475 1478 1478 1479 1478 1475 1475 1475 1474 1474 1475 1475 1476 1478 1478 1479 1480 1481 1481 1483 1485 1486 1486 1487 1489 1491 1494 1495 1493 1493 1492 1489 1489 1489 1490 1493 1495 1496 1498 1500 1503 1505 1507 1510 1512 1512 1510 1509 1509 1510 1513 1515 1518 1520 1520 1521 1522 1523 1524 1524 1524 1526 1525 1522 1515 1504 1502 1507 1503 1503 1512 1517 1517 1520 1522 1522 1524 1524 1525 1526 1527 1528
1462 1464 1464 1463 1467 1470 1472 1475 1474 1473 1472 1472 1472 1473 1473 1472 1473 1474 1475 1476 1477 1477 1478 1479 1481 1482 1483 1485 1486 1485 1487 1490 1491 1492 1491 1490 1489 1488 1488 1488 1490 1492 1495 1498 1499 1499 1501 1505 1506 1509 1512 1509 1506 1508 1509 1509 1509 1510 1512 1513 1514 1516 1521 1522 1524 1525 1524 1523 1521 1521 1516 1503 1501 1508 1507 1506 1512 1513 1514 1516 1517 1520 1520 1521 1523 1525 1525 1526
1459 1461 1462 1462 1465 1467 1470 1472 1471 1469 1470 1470 1470 1471 1471 1471 1472 1473 1474 1474 1476 1476 1478 1479 1480 1481 1482 1482 1484 1484 1485 1488 1490 1490 1489 1488 1486 1486 1487 1488 1489 1491 1493 1497 1497 1496 1498 1502 1504 1507 1509 1508 1507 1510 1512 1511 1510 1511 1510 1511 1512 1513 1514 1516 1519 1521 1523 1525 1523 1523 1517 1506 1505 1510 1509 1508 1510 1510 1512 1514 1515 1517 1518 1520 1522 1523 1524 1525
1458 1459 1460 1461 1463 1466 1468 1470 1469 1469 1468 1468 1468 1469 1470 1471 1472 1473 1473 1474 1475 1476 1477 1478 1479 1480 1480 1481 1483 1483 1483 1485 1487 1487 1487 1486 1485 1485 1486 1487 1488 1490 1492 1494 1495 1495 1496 1499 1501 1505 1507 1509 1509 1508 1509 1511 1511 1511 1510 1511 1512 1511 1510 1511 1514 1516 1519 1518 1519 1523 1518 1506 1506 1510 1509 1509 1511 1511 1513 1513 1514 1516 1517 1519 1521 1522 1523 1523
1457 1458 1459 1461 1463 1464 1465 1465 1465 1466 1467 1467 1468 1469 1470 1471 1471 1472 1472 1472 1473 1474 1476 1477 1477 1478 1479 1480 1481 1482 1482 1484 1484 1484 1484 1485 1484 1485 1486 1486 1488 1489 1490 1492 1492 1492 1494 1496 1499 1505 1509 1511 1512 1511 1510 1510 1510 1509 1509 1511 1511 1510 1512 1515 1516 1519 1519 1511 1511 1517 1512 1503 1506 1511 1510 1510 1512 1512 1513 1514 1514 1516 1517 1518 1520 1520 1521 1521
1456 1458 1459 1460 1462 1463 1462 1461 1461 1463 1465 1466 1468 1469 1470 1471 1470 1471 1472 1472 1472 1472 1474 1475 1475 1476 1477 1480 1481 1482 1482 1482 1483 1483 1483 1484 1485 1486 1486 1486 1487 1488 1488 1490 1489 1489 1492 1493 1495 1502 1507 1507 1507 1506 1505 1504 1506 1509 1509 1510 1510 1509 1511 1512 1514 1518 1516 1508 1508 1512 1506 1503 1508 1511 1510 1511 1513 1513 1513 1513 1514 1515 1516 1517 1517 1518 1519 1519
1454 1458 1461 1461 1461 1461 1461 1460 1461 1462 1463 1465 1468 1468 1469 1470 1469 1469 1471 1471 1471 1472 1472 1473 1474 1475 1477 1479 1480 1482 1481 1482 1483 1483 1483 1484 1485 1486 1487 1486 1487 1487 1487 1489 1489 1490 1493 1494 1493 1493 1494 1494 1492 1493 1497 1498 1499 1502 1504 1505 1507 1509 1509 1509 1512 1514 1511 1508 1509 1506 1503 1506 1508 1509 1510 1511 1512 1513 1512 1512 1513 1514 1514 1515 1515 1516 1517 1517
1452 1455 1458 1460 1461 1460 1460 1460 1461 1462 1462 1464 1466 1466 1466 1468 1468 1469 1470 1470 1470 1471 1473 1473 1473 1476 1478 1478 1480 1481 1480 1481 1482 1482 1483 1483 1484 1487 1487 1486 1487 1487 1487 1488 1489 1491 1494 1494 1492 1490 1490 1491 1490 1490 1496 1496 1493 1494 1497 1498 1503 1508 1509 1508 1508 1506 1506 1510 1509 1502 1504 1508 1504 1503 1508 1509 1509 1510 1510 1510 1511 1512 1512 1513 1514 1514 1514 1514
1451 1453 1454 1456 1458 1458 1459 1459 1459 1461 1463 1463 1464 1464 1465 1466 1467 1467 1467 1468 1469 1470 1473 1474 1474 1474 1475 1475 1478 1480 1481 1482 1482 1481 1482 1484 1485 1487 1487 1487 1487 1487 1487 1489 1489 1490 1492 1490 1490 1492 1493 1495 1496 1495 1497 1497 1495 1496 1496 1495 1499 1506 1507 1505 1504 1503 1503 1505 1502 1499 1505 1506 1500 1499 1504 1505 1505 1506 1507 1508 1509 1509 1510 1511 1511 1511 1510 1510
1450 1451 1452 1454 1455 1455 1455 1456 1457 1461 1462 1463 1464 1463 1463 1464 1464 1464 1464 1467 1470 1469 1470 1472 1470 1469 1471 1473 1476 1480 1480 1479 1479 1478 1479 1482 1484 1485 1485 1485 1486 1486 1487 1488 1488 1489 1489 1487 1490 1493 1494 1497 1500 1499 1500 1500 1498 1498 1497 1495 1498 1504 1505 1504 1503 1502 1503 1503 1500 1501 1506 1504 1497 1498 1502 1502 1503 1504 1505 1506 1505 1506 1507 1508 1507 1507 1507 1508
1448 1449 1450 1452 1453 1453 1454 1455 1457 1460 1461 1464 1464 1460 1460 1462 1462 1462 1462 1464 1467 1467 1467 1467 1464 1464 1468 1470 1473 1475 1473 1471 1472 1473 1475 1479 1481 1482 1482 1480 1481 1485 1487 1487 1488 1489 1488 1489 1492 1492 1492 1497 1502 1503 1503 1503 1501 1500 1498 1497 1499 1504 1506 1506 1505 1504 1507 1507 1503 1504 1508 1504 1496 1496 1500 1501 1502 1503 1503 1502 1501 1503 1504 1504 1504 1504 1504 1506
1447 1448 1449 1451 1452 1452 1454 1454 1455 1458 1460 1460 1458 1455 1457 1459 1457 1459 1461 1459 1460 1462 1462 1462 1461 1463 1467 1468 1468 1467 1465 1466 1469 1469 1471 1474 1475 1476 1476 1474 1476 1481 1485 1486 1486 1486 1488 1491 1494 1494 1492 1494 1501 1505 1505 1504 1506 1506 1499 1496 1501 1504 1501 1501 1503 1503 1503 1503 1503 1507 1509 1501 1493 1494 1499 1500 1500 1500 1500 1499 1500 1500 1500 1501 1501 1502 1503 1504
1445 1446 1447 1450 1451 1451 1451 1452 1454 1455 1453 1451 1451 1451 1453 1454 1453 1457 1460 1458 1457 1458 1459 1459 1460 1463 1466 1466 1464 1462 1462 1465 1467 1468 1470 1471 1471 1471 1472 1472 1472 1474 1479 1483 1484 1484 1486 1488 1491 1492 1490 1494 1504 1507 1504 1504 1506 1500 1489 1487 1495 1498 1496 1497 1500 1498 1496 1498 1502 1503 1498 1491 1490 1494 1497 1496 1496 1497 1496 1496 1497 1497 1498 1499 1499 1500 1501 1502